Flag for U.S.A. Weather past 2 weeks in Oberlin, Ohio, U.S.A.

Now
62 °F

Sunny.


Feels Like: 62 °F
Forecast: 46 / 62 °F
Wind: 14 mph from Northeast

Location: Lorain County Regional Airport

Current Time: May 22, 2015 at 5:21:52 PM

Latest Report: May 22, 2015 at 4:53 PM


Visibility: 10 mi

Pressure: 30.23 "Hg

Humidity: 30%

Dew point: 30 °F

Location of OberlinLocation

Historic Weather in Oberlin — Graph

°F

Oberlin temperature yesterday

Maximum temperature yesterday: 59 °F (at 6:53 PM)
Minimum temperature yesterday: 48 °F (at 1:53 AM)
Average temperature yesterday: 53 °F

Past Weeks' High & Low Weather Summary

 TemperatureHumidityPressure
High89 °F (May 8, 3:53 PM)100% (May 14, 12:53 AM)30.50 "Hg (May 14, 12:53 AM)
Low33 °F (May 14, 6:01 AM)26% (May 22, 1:53 PM)29.82 "Hg (May 11, 4:53 PM)
Average63 °F68%30.10 "Hg
* Reported May 7 3:53 PM — May 22 3:53 PM, Oberlin, Weather by CustomWeather, © 2015

Note: Actual official high and low records may vary slightly from our data, if they occured in-between our weather recording intervals... More about our weather records

Advertising

Oberlin weather history for previous 24 hours

 ConditionsComfort  
Time TempWeatherWind HumidityBarometerVisibility
3:53 PM
Fri, May 22
62 °FSunny.10 mph30%30.23 "Hg10 mi
2:53 PM61 °FSunny.14 mph31%30.22 "Hg10 mi
1:53 PM62 °FSunny.14 mph26%30.22 "Hg10 mi
12:53 PM59 °FSunny.14 mph33%30.20 "Hg10 mi
11:53 AM59 °FSunny.9 mph31%30.18 "Hg10 mi
10:53 AM58 °FPartly sunny.10 mph41%30.16 "Hg10 mi
9:53 AM56 °FSunny.12 mph53%30.14 "Hg10 mi
8:53 AM55 °FPassing clouds.13 mph69%30.12 "Hg10 mi
7:53 AM52 °FPassing clouds.7 mph64%30.09 "Hg10 mi
6:53 AM52 °FOvercast.8 mph59%30.08 "Hg10 mi
5:53 AM52 °FOvercast.7 mph59%30.06 "Hg10 mi
4:53 AM51 °FMostly cloudy.8 mph61%30.03 "Hg10 mi
3:53 AM49 °FOvercast.8 mph66%30.03 "Hg10 mi
2:53 AM49 °FMostly cloudy.8 mph66%30.03 "Hg10 mi
1:53 AM46 °FClear.6 mph73%30.04 "Hg10 mi
12:53 AM47 °FClear.8 mph71%30.04 "Hg10 mi
11:53 PM
Thu, May 21
48 °FClear.8 mph68%30.03 "Hg10 mi
10:53 PM49 °FClear.9 mph64%30.03 "Hg10 mi
9:53 PM50 °FClear.8 mph59%30.02 "Hg10 mi
8:53 PM53 °FSunny.7 mph48%30.00 "Hg10 mi
7:53 PM58 °FPassing clouds.8 mph38%30.00 "Hg10 mi
6:53 PM59 °FPartly sunny.12 mph33%29.99 "Hg10 mi
5:53 PM58 °FPartly sunny.14 mph44%30.00 "Hg10 mi
Weather by CustomWeather, © 2015

See weather overviewHow to use our weather pages